Location: Brantley
(31.5822°N, 86.2569°W)
Time: 02:04:15
(UTC+00:00)

Vanguard 2 - Pass Details

Date: 21 February 2026
Orbit: 553 x 2896 km, 32.9° (Epoch: 13 March)

Event Time Altitude Azimuth Distance (km) Brightness Sun altitude
Rises 15:18:41 0° 279° (W) 2,812 10.0 33.2°
Reaches altitude 10° 15:21:06 10° 270° (W) 1,836 9.2 33.6°
Maximum altitude 15:24:45 35° 203° (SSW) 899 8.5 34.2°
Drops below altitude 10° 15:28:40 10° 136° (SE) 1,975 11.1 34.8°
Sets 15:31:22 0° 127° (SE) 3,063 11.6 35.2°
